Regional Weather Roundup
Issued by NWS Grand Forks, ND

Home | Current Version | Previous Version | Text Only | Print | Product List | Glossary On
Versions: 1 2 3 4 5 6 7 8 9 10 11 12 13 14 15 16 17 18 19 20 21 22 23 24 25 26 27 28 29 30 31 32 33 34 35 36 37 38 39 40 41 42 43 44 45 46 47 48 49 50
000
ASUS43 KFGF 210110
RWRFGF
PRAIRIE TO PINES  WEATHER ROUNDUP
NATIONAL WEATHER SERVICE EASTERN NORTH DAKOTA/GRAND FORKS ND
700 PM CST FRI JAN 20 2017

 **SATELLITE DATA USED TO AUGMENT SKY COVER AT AUTOMATED STATIONS**
 *****  WEATHER ACROSS EASTERN NORTH DAKOTA  *****

CITY           SKY/WX    TMP DP  RH WIND       PRES   REMARKS
GRAND FORKS    CLOUDY    36  33  89 SE10      29.45S
GRAND FRKS AFB CLOUDY    32  32 100 SE10      29.45S WCI  24
DEVILS LAKE    CLOUDY    33  32  96 SE9       29.40R FOG
FARGO          CLOUDY    39  35  86 SE10      29.45R
WAHPETON ARPT  CLOUDY    34  32  93 SE9       29.46S
$$

 ***** WEATHER ACROSS CENTRAL AND WESTERN NORTH DAKOTA  *****

CITY           SKY/WX    TMP DP  RH WIND       PRES   REMARKS
BISMARCK       CLOUDY    31  30  96 W3        29.35F FOG
MINOT          CLOUDY    28  26  92 S8        29.35S FOG     WCI  20
JAMESTOWN      CLOUDY    33  33 100 SE12      29.36S FOG     WCI  24
MINOT AFB      FRZ DRZL  24  22  94 SW8       29.35S FOG     WCI  15
GARRISON         N/A     25  24  96 SW3       29.34S
WILLISTON      FAIR      27  25  92 SW6       29.35R WCI  20
DICKINSON      FAIR      30  26  85 NW9       29.30F WCI  22
HETTINGER      MOCLDY    31  27  85 N9        29.33S WCI  23
$$

 *****  OTHER AIRPORT OBSERVATIONS IN OUR AREA  *****

CITY           SKY/WX    TMP DP  RH WIND       PRES   REMARKS
WALHALLA       NOT AVBL
GRAFTON AIRPOR CLOUDY    34  34 100 E7        29.48S FOG
VALLEY CITY AR FOG       32  32 100 S8        29.41S VSB 1/4 WCI  25
CANDO          NOT AVBL
CAVALIER APRT  FOG       34  34 100 SE7       29.46S VSB 1/4
GWINNER        CLOUDY    36  36 100 SE20      29.40R VSB 1/2
SHEYENNE NWR     N/A     34  34 100 SE12      29.95S
ROLLA            N/A    N/A N/A N/A MISG        N/A
 ***** THE ABOVE OBSERVATIONS ARE NON NWS ARE NOT QUALITY
       CONTROLLED AND MAY MIS-REPORT RAIN FOR SNOW...
$$

  *****  WEATHER ACROSS NORTHERN MINNESOTA  *****

CITY           SKY/WX    TMP DP  RH WIND       PRES   REMARKS
FLAG ISLAND    RAIN      36  34  93 SE7       29.52S
WARROAD        DRIZZLE   36  30  80 SE7       29.52S
ROSEAU         RAIN      36  30  80 SE8       29.50F
HALLOCK        CLOUDY    36  36 100 SE10      29.47S
THF RVR FALLS  CLOUDY    34  33  96 SE13      29.49S WCI  25
BAUDETTE       LGT RAIN  35  33  92 SE12      29.53S
WASKISH        CLOUDY    36  36 100 SE7       29.53F FOG
CROOKSTON      CLOUDY    36  36 100 SE10      29.47F
GREENBUSH NDAW   N/A     34  34 100 SE8         N/A
$$
  *****  WEATHER ACROSS CENTRAL AND WEST MINNESOTA  *****

CITY           SKY/WX    TMP DP  RH WIND       PRES   REMARKS
FOSSTON        CLOUDY    34  34 100 SE7       29.50S
BEMIDJI        CLOUDY    33  33  99 SE9       29.51S FOG
PARK RAPIDS    FOG       34  32  92 SE10      29.50S VSB 1
ELBOW LAKE     CLOUDY    34  34 100 SE12G17   29.47S FOG
WADENA         CLOUDY    34  34 100 SE9       29.50F FOG
DETROIT LAKES  CLOUDY    34  34 100 SE12      29.49S FOG
MOORHEAD       CLOUDY    36  34  93 SE8       29.46R
FERGUS FALLS   CLOUDY    36  36 100 SE17      29.50S
MORRIS MN      CLOUDY    34  34 100 SE15      29.47R FOG     WCI  24
STAPLES        CLOUDY    34  34 100 SE5       29.52S FOG
$$
  *****  WEATHER ELSEWHERE ACROSS MINNESOTA  *****

CITY           SKY/WX    TMP DP  RH WIND       PRES   REMARKS
DULUTH         LGT RAIN  34  34 100 E10       29.58S VSB 1/4
INTRNTL FALLS  LGT RAIN  36  34  92 SE6       29.57R FOG
ELY            LGT RAIN  34  34 100 E5        29.59S
CLOQUET        FOG       34  34 100 E5        29.57S VSB 3/4
WHEATON        CLOUDY    43  43 100 SE14      29.47S FOG
BRAINERD       FOG       34  34 100 SE6       29.54S VSB 1
HIBBING        CLOUDY    32  32 100 SE8       29.56F FOG     WCI  25
ALEXANDRIA     CLOUDY    34  33  96 SE13      29.50S FOG     WCI  25
SAINT CLOUD    FOG       34  34 100 E5        29.53F VSB 1/2
MINNEAPOLIS    FOG       35  34  96 SE12      29.56S VSB 1/2
$$

  *****  WEATHER ACROSS SOUTH DAKOTA  *****

CITY           SKY/WX    TMP DP  RH WIND       PRES   REMARKS
SIOUX FALLS    DRZL/FOG  39  39 100 SE12      29.45R VSB 1
BROOKINGS      FOG       36  36 100 S12       29.42R VSB 1/2
WATERTOWN      FOG       36  36 100 SE13      29.40R VSB 1/2
HURON          CLOUDY    38  37  97 S6        29.35S
SISSETON         N/A     35  35 100 S10       29.42R
ABERDEEN       CLOUDY    33  30  88 SE5       29.37S
MITCHELL       FAIR      40  38  93 S16       29.38S
PIERRE         CLOUDY    19  17  92 W7        29.33R FOG     WCI  10
MOBRIDGE       CLOUDY    31  28  89 MISG      29.29S FOG
RAPID CITY     FAIR      36  27  69 NW8       29.33R
$$

  *****  SOME WEATHER IN NEARBY STATES *****

CITY           SKY/WX    TMP DP  RH WIND       PRES   REMARKS
GLASGOW MT     MOCLDY    33  29  85 CALM      29.36F
GREAT FALLS MT FAIR      33  21  61 S5        29.34F
CHEYENNE WY    FAIR      31  17  56 NW10      29.41R WCI  22
SCOTTSBLUFF NE LGT RAIN  36  33  89 W7        29.41R
OMAHA NE       LGT RAIN  42  38  85 SE6       29.46S FOG
DES MOINES IA  DRZL/FOG  40  39  97 E9        29.52F VSB 1/2
DAVENPORT IA   FOG       41  40  96 E8        29.60R VSB 1/4
CHICAGO IL     DRZL/FOG  41  41 100 SE7       29.65R VSB 3/4
EAU CLAIRE WI  CLOUDY    35  34  96 SE7       29.59F FOG
LA CROSSE WI   CLOUDY    39  36  89 SE8       29.60S FOG
$$

  *****  SOME NATIONAL WEATHER *****

CITY           SKY/WX    TMP DP  RH WIND       PRES   REMARKS
LA GUARDIA NY  CLOUDY    43  37  79 SE6       29.93S
RALEIGH NC     FAIR      52  51  97 CALM      29.90R FOG
ATLANTA GA     FAIR      64  58  80 S6        29.85R
NEW ORLEANS LA MOCLDY    71  67  87 S8        29.78S
OKLAHOMA CITY  FAIR      60  35  39 SW15      29.51R
ALBUQUERQUE NM LGT RAIN  36  34  92 SE3       29.65F
SALT LAKE CITY CLOUDY    40  26  57 S17G23    29.34F
LOS ANGELES CA MOCLDY    55  47  74 W31G37    29.46R
BOISE ID       CLOUDY    40  26  57 SE16      29.24F
SEATTLE WA     CLOUDY    49  32  52 E8        29.11R
$$

*** WEATHER ACROSS MANITOBA...SASKATCHEWAN AND ONTARIO ***
                ***ONTARIO***

CITY           SKY/WX    TMP DP  RH WIND       PRES   REMARKS
GERALDTON      FOG       32  32 100 CALM      29.66S VSB 1/8
THUNDER BAY    FOG       34  34 100 E6        29.68R VSB 3/8
SIOUX LOOKOUT  FOG       34  34 100 SE5       29.60S VSB 1/4
TORONTO        DRIZZLE   37  37 100 E5        29.73F
BIG TROUT LK   FLURRIES  25  25 100 SE3       29.68S
PICKLE LAKE    FOG       34  34 100 SE3       29.63R VSB 1/4
DRYDEN         CLOUDY    37  37 100 E6        29.58R
KENORA         DRIZZLE   37  36  93 SE8       29.54S FOG
$$
                *** MANITOBA***

CITY           SKY/WX    TMP DP  RH WIND       PRES   REMARKS
BRANDON        CLOUDY    27  25  93 NE3       29.39F
DAUPHIN        PTCLDY    21  19  93 W6        29.40R WCI  14
ISLAND LAKE    CLOUDY    30  30 100 VRB2      29.58R FOG
PILOT MOUND      N/A     32  32 100 SE10        N/A  WCI  24
THE PAS        PTCLDY    25  19  80 E12G17    29.42R WCI  14
THOMPSON       LGT SNOW  28  27  93 E7        29.55S FOG     WCI  21
WINNIPEG       LGT RAIN  36  36 100 SE10      29.48S FOG
LYNN LAKE      CLOUDY    28  28 100 E12G17    29.49R FOG     WCI  18
CHURCHILL      FLURRIES  18  16  93 SE16G22   29.81R WCI   3
GILLAM         FLURRIES  28  27  93 E6        29.65S WCI  22
$$
                ***SASKATCHEWAN***

CITY           SKY/WX    TMP DP  RH WIND       PRES   REMARKS
ESTEVAN        CLOUDY    19  19 100 E6        29.33S FOG     WCI  11
KINDERSLEY     MOCLDY    30  28  93 N5        29.32S
LLOYDMINSTER   MOCLDY    28  27  93 NW5       29.36R WCI  23
PRINCE ALBERT  MOCLDY    28  27  93 NW2       29.34R
REGINA         MOCLDY    27  23  86 SE3       29.31S
YORKTON        MOCLDY    23  19  86 SE10      29.33F WCI  12
N. BATTLEFORD  CLOUDY    27  27 100 NW3       29.36S
LA RONGE       FOG       28  28 100 NE5       29.41R VSB 1   WCI  23
SASKATOON      MOCLDY    28  27  93 NW6       29.34R WCI  22
SWIFT CURRENT  CLOUDY    36  28  75 W12       29.30R
$$
NOTE: THESE ARE AUTOMATED STATIONS WITH LIMITED QUALITY CONTROL
      "FAIR" INDICATES FEW OR NO CLOUDS BELOW 12,000 FEET WITH NO
      SIGNIFICANT WEATHER AND/OR OBSTRUCTIONS TO VISIBILITY.
      SKY/WX - SKY CONDITION AND SIGNIFICANT WEATHER.
      TMP - AIR TEMPERATURE.    DP   - DEWPOINT TEMPERATURE.
      RH  - RELATIVE HUMIDITY.  PRES - PRESSURE.
      HX  - HEAT INDEX.         WCI  - WIND CHILL INDEX.
$




USA.gov is the U.S. government's official web portal to all federal, state and local government web resources and services.